Location: Unspecified
(0.0000°N, 0.0000°E)
Time: 18:18:29
(UTC+00:00)

Courier 1B Rocket - Pass Details

Date: 01 May 2024
Orbit: 920 x 1201 km, 28.2° (Epoch: 19 May)

Event Time Altitude Azimuth Distance (km) Brightness Sun altitude
Rises 19:03:40 0° 236° (WSW) 3,636 8.6 -16.0°
Reaches altitude 10° 19:06:15 10° 235° (SW) 2,721 7.9 -16.7°
Maximum altitude 19:12:52 76° 149° (SSE) 1,057 5.0 -18.3°
Enters shadow 19:17:44 22° 67° (ENE) 2,157 6.4 -19.4°
